Weather History for Kivalina, AK

Change the Weather History Date:

Saturday, April 6, 2013

  Actual Average Record
Temperature  
Mean Temperature -4 °F -  
Max Temperature 0 °F - - ()
Min Temperature -8 °F - - ()
Degree Days  
Heating Degree Days 69    
Moisture  
Dew Point -9 °F    
Average Humidity 80    
Maximum Humidity 85    
Minimum Humidity 72    
Precipitation  
Precipitation 0.00 in - - ()
Sea Level Pressure  
Sea Level Pressure 30.14 in    
Wind  
Wind Speed 34 mph (North)    
Max Wind Speed 41 mph    
Max Gust Speed 50 mph    
Visibility 1 miles    
Events Fog , Snow    
T = Trace of Precipitation, MM = Missing Value Source: NWS Daily Summary

Daily Weather History Graph

Daily Weather History Graph

Search for Another Location

Airport:

Trip Planner

Search our weather history database for the weather conditions in past years. The results will help you decide how hot, cold, wet, or windy it might be!

Date:

Astronomy

Apr. 06, 2013 Rise Set
Actual Time 7:44 AM AKDT 10:18 PM AKDT
Civil Twilight 6:43 AM AKDT 11:20 PM AKDT
Nautical Twilight 5:13 AM AKDT 12:53 AM AKDT
Astronomical Twilight Sun does not rise Sun does not rise
Moon 7:07 AM AKDT (4/6) 5:40 PM AKDT (4/6)
Length of Visible Light 16h 37m
Length of Day
14h 33m
Waning Crescent, 14% of the Moon is Illuminated
Apr 6
Waning Crescent
Apr 10
New
Apr 18
First Quarter
Apr 25
Full
May 2
Last Quarter

Hourly Weather History & Observations

Time (AKDT) Temp. Windchill Dew Point Humidity Pressure Visibility Wind Dir Wind Speed Gust Speed Precip Events Conditions
12:53 AM -4.0 °F -32.0 °F -9.0 °F 79% 30.23 in 1.2 mi North 32.2 mph - N/A   Haze
1:53 AM -5.1 °F -33.5 °F -9.9 °F 80% 30.23 in 1.5 mi North 32.2 mph - N/A   Haze
2:35 AM -5.8 °F -34.9 °F -9.4 °F 84% 30.22 in 0.8 mi NNE 33.4 mph 41.4 mph N/A   Clear
2:53 AM -5.1 °F -33.5 °F -9.9 °F 80% 30.22 in 1.0 mi NNE 32.2 mph - N/A   Haze
3:53 AM -6.0 °F -33.9 °F -11.0 °F 79% 30.22 in 1.0 mi NNE 29.9 mph - N/A   Haze
4:53 AM -7.1 °F -37.0 °F -11.9 °F 79% 30.20 in 1.0 mi NNE 34.5 mph - N/A   Haze
5:04 AM -7.6 °F -38.1 °F -11.2 °F 84% 30.19 in 0.8 mi NNE 35.7 mph - N/A   Clear
5:12 AM -7.6 °F -38.1 °F -11.2 °F 84% 30.19 in 1.0 mi NNE 35.7 mph - N/A   Haze
5:20 AM -7.6 °F -37.3 °F -11.2 °F 84% 30.19 in 0.8 mi NNE 33.4 mph - N/A   Haze
5:28 AM -7.6 °F -37.7 °F -11.2 °F 84% 30.19 in 1.0 mi NNE 34.5 mph - N/A   Haze
5:35 AM -7.6 °F -38.1 °F -11.2 °F 84% 30.19 in 0.8 mi NNE 35.7 mph - N/A   Haze
5:50 AM -7.6 °F -37.3 °F -11.2 °F 84% 30.18 in 1.0 mi NNE 33.4 mph 39.1 mph N/A   Haze
5:53 AM -7.1 °F -36.2 °F -11.9 °F 79% 30.19 in 1.0 mi NNE 32.2 mph 39.1 mph N/A   Haze
6:53 AM -7.1 °F -37.7 °F -11.9 °F 79% 30.18 in 1.0 mi North 36.8 mph 41.4 mph N/A   Haze
7:11 AM -7.6 °F -39.1 °F -11.2 °F 84% 30.17 in 0.8 mi North 39.1 mph 46.0 mph N/A   Haze
7:53 AM -8.0 °F -39.6 °F -11.9 °F 83% 30.15 in 0.2 mi NNE 39.1 mph 46.0 mph N/A Fog Light Freezing Fog
8:53 AM -8.0 °F -38.9 °F -13.0 °F 79% 30.16 in 0.2 mi North 36.8 mph 44.9 mph N/A   Haze
9:53 AM -7.1 °F -37.0 °F -13.0 °F 75% 30.15 in 0.2 mi North 34.5 mph 42.6 mph N/A   Haze
10:42 AM -7.6 °F -38.8 °F -11.2 °F 84% 30.15 in 0.2 mi NNE 38.0 mph 46.0 mph N/A   Haze
10:53 AM -7.1 °F -37.7 °F -11.9 °F 79% 30.15 in 0.2 mi North 36.8 mph 44.9 mph N/A   Haze
11:12 AM -7.6 °F -37.7 °F -11.2 °F 84% 30.15 in 0.2 mi North 34.5 mph 46.0 mph N/A   Haze
11:22 AM -7.6 °F -38.4 °F -11.2 °F 84% 30.15 in 0.2 mi North 36.8 mph 44.9 mph N/A Fog Light Freezing Fog
11:53 AM -6.0 °F -36.2 °F -11.0 °F 79% 30.15 in 0.2 mi North 36.8 mph 43.7 mph N/A   Haze
12:00 PM -5.8 °F -34.9 °F -11.2 °F 77% 30.16 in 0.2 mi North 33.4 mph 43.7 mph N/A   Haze
12:15 PM -5.8 °F -35.2 °F -11.2 °F 77% 30.16 in 0.5 mi North 34.5 mph 42.6 mph N/A   Haze
12:49 PM -5.8 °F -35.2 °F -9.4 °F 84% 30.16 in 0.2 mi North 34.5 mph 47.2 mph N/A   Haze
12:53 PM -4.0 °F -33.4 °F -9.9 °F 76% 30.15 in 0.2 mi North 36.8 mph 47.2 mph N/A   Haze
1:08 PM -4.0 °F -33.1 °F -9.4 °F 78% 30.15 in 0.2 mi North 35.7 mph 44.9 mph N/A   Haze
1:31 PM -4.0 °F -33.8 °F -9.4 °F 78% 30.13 in 0.2 mi North 38.0 mph 44.9 mph N/A   Haze
1:53 PM -2.9 °F -32.9 °F -8.0 °F 79% 30.13 in 0.2 mi North 40.3 mph 48.3 mph N/A   Haze
2:53 PM -2.0 °F -30.4 °F -7.1 °F 79% 30.13 in 0.5 mi North 35.7 mph 42.6 mph N/A   Haze
3:48 PM -0.4 °F -27.1 °F -5.8 °F 78% 30.13 in 1.2 mi North 32.2 mph 38.0 mph N/A Snow Blowing Snow
3:53 PM -0.0 °F -25.9 °F -7.1 °F 72% 30.13 in 1.2 mi North 29.9 mph 39.1 mph N/A Snow Blowing Snow
4:28 PM -0.4 °F -27.8 °F -7.6 °F 72% 30.11 in 0.8 mi North 34.5 mph 40.3 mph N/A   Haze
4:53 PM -2.0 °F -31.3 °F -7.1 °F 79% 30.09 in 0.2 mi North 39.1 mph 43.7 mph N/A   Haze
5:53 PM -0.9 °F -28.9 °F -6.0 °F 79% 30.08 in 0.5 mi North 35.7 mph 41.4 mph N/A   Haze
6:53 PM -0.9 °F -28.9 °F -6.0 °F 79% 30.06 in 0.2 mi North 35.7 mph 42.6 mph N/A   Haze
7:45 PM -2.2 °F -32.2 °F -5.8 °F 85% 30.04 in 0.2 mi North 41.4 mph 49.5 mph N/A Fog Light Freezing Fog
7:53 PM -2.0 °F -31.6 °F -6.0 °F 83% 30.05 in 0.2 mi North 40.3 mph 49.5 mph N/A Fog Light Freezing Fog
8:53 PM -2.0 °F -29.7 °F -6.0 °F 83% 30.06 in 0.5 mi North 33.4 mph 40.3 mph N/A Fog Light Freezing Fog
9:43 PM -0.4 °F -26.4 °F -5.8 °F 78% 30.05 in 1.0 mi North 29.9 mph 39.1 mph N/A   Haze
9:53 PM -2.0 °F -27.3 °F -7.1 °F 79% 30.06 in 1.0 mi North 26.5 mph 36.8 mph N/A   Haze
10:12 PM -2.2 °F -28.4 °F -7.6 °F 78% 30.05 in 0.8 mi North 28.8 mph 35.7 mph N/A   Haze
10:27 PM -2.2 °F -28.4 °F -7.6 °F 78% 30.05 in 1.2 mi North 28.8 mph 38.0 mph N/A   Haze
10:53 PM -2.0 °F -28.6 °F -7.1 °F 79% 30.04 in 1.5 mi North 29.9 mph 35.7 mph N/A   Haze
11:25 PM -2.2 °F -29.9 °F -7.6 °F 78% 30.02 in 0.8 mi North 33.4 mph 41.4 mph N/A   Haze
11:53 PM -2.0 °F -29.3 °F -7.1 °F 79% 30.03 in 0.8 mi North 32.2 mph 41.4 mph N/A   Haze